Time,TemperatureF,DewpointF,PressureIn,WindDirection,WindDirectionDegrees,WindSpeedMPH,WindSpeedGustMPH,Humidity,HourlyPrecipIn,Conditions,Clouds,dailyrainin,SoftwareType,DateUTC
2013-03-18 00:00:00,34.4,16.1,30.26,North,0,0.0,2.9,47,0.00,,,0.00,WUHU216HW,2013-03-18 04:00:00,
2013-03-18 00:05:00,34.2,15.9,30.27,North,0,0.7,1.8,47,0.00,,,0.00,WUHU216HW,2013-03-18 04:05:00,
2013-03-18 00:10:00,34.2,16.5,30.27,NE,45,1.8,1.8,48,0.00,,,0.00,WUHU216HW,2013-03-18 04:10:00,
2013-03-18 00:15:00,34.0,15.8,30.27,North,0,0.7,2.5,47,0.00,,,0.00,WUHU216HW,2013-03-18 04:15:00,
2013-03-18 00:20:00,33.8,16.1,30.27,ENE,68,0.0,2.5,48,0.00,,,0.00,WUHU216HW,2013-03-18 04:20:00,
2013-03-18 00:25:00,33.7,15.4,30.27,North,0,0.4,1.6,47,0.00,,,0.00,WUHU216HW,2013-03-18 04:25:00,
2013-03-18 00:30:00,33.5,15.8,30.27,ENE,68,0.0,1.6,48,0.00,,,0.00,WUHU216HW,2013-03-18 04:30:00,
2013-03-18 00:35:00,33.5,15.8,30.27,NE,45,0.4,0.4,48,0.00,,,0.00,WUHU216HW,2013-03-18 04:35:00,
2013-03-18 00:40:00,33.5,15.8,30.28,North,0,0.4,0.7,48,0.00,,,0.00,WUHU216HW,2013-03-18 04:40:00,
2013-03-18 00:45:00,33.3,15.6,30.28,NE,45,0.0,0.7,48,0.00,,,0.00,WUHU216HW,2013-03-18 04:45:00,
2013-03-18 00:50:00,33.1,15.5,30.28,North,0,0.0,1.1,48,0.00,,,0.00,WUHU216HW,2013-03-18 04:50:00,
2013-03-18 00:55:00,32.9,15.3,30.28,ESE,113,0.0,1.1,48,0.00,,,0.00,WUHU216HW,2013-03-18 04:55:00,
2013-03-18 01:00:00,32.9,15.3,30.28,NE,45,1.1,1.1,48,0.00,,,0.00,WUHU216HW,2013-03-18 05:00:00,
2013-03-18 01:05:00,32.8,15.1,30.28,East,90,1.1,1.1,48,0.00,,,0.00,WUHU216HW,2013-03-18 05:05:00,
2013-03-18 01:10:00,32.8,15.1,30.28,North,0,0.4,1.3,48,0.00,,,0.00,WUHU216HW,2013-03-18 05:10:00,
2013-03-18 01:15:00,32.8,15.1,30.28,ESE,113,0.0,1.3,48,0.00,,,0.00,WUHU216HW,2013-03-18 05:15:00,
2013-03-18 01:20:00,32.6,14.9,30.28,NE,45,0.0,1.1,48,0.00,,,0.00,WUHU216HW,2013-03-18 05:20:00,
2013-03-18 01:25:00,32.4,14.8,30.28,North,0,0.0,1.1,48,0.00,,,0.00,WUHU216HW,2013-03-18 05:25:00,
2013-03-18 01:30:00,32.2,15.1,30.29,East,90,0.0,1.1,49,0.00,,,0.00,WUHU216HW,2013-03-18 05:30:00,
2013-03-18 01:35:00,32.2,15.1,30.29,ENE,68,0.4,1.1,49,0.00,,,0.00,WUHU216HW,2013-03-18 05:35:00,
2013-03-18 01:40:00,32.0,14.9,30.28,NNE,23,0.0,1.1,49,0.00,,,0.00,WUHU216HW,2013-03-18 05:40:00,
2013-03-18 01:45:00,32.0,14.9,30.29,East,90,0.4,1.1,49,0.00,,,0.00,WUHU216HW,2013-03-18 05:45:00,
2013-03-18 01:50:00,31.9,14.9,30.29,NE,45,0.2,1.6,49,0.00,,,0.00,WUHU216HW,2013-03-18 05:50:00,
2013-03-18 01:55:00,31.9,14.9,30.29,NW,315,0.9,1.6,49,0.00,,,0.00,WUHU216HW,2013-03-18 05:55:00,
2013-03-18 02:00:00,31.7,14.7,30.29,NE,45,0.9,0.9,49,0.00,,,0.00,WUHU216HW,2013-03-18 06:00:00,
2013-03-18 02:05:00,31.7,15.1,30.29,ENE,68,0.0,0.9,50,0.00,,,0.00,WUHU216HW,2013-03-18 06:05:00,
2013-03-18 02:10:00,31.7,15.1,30.29,North,0,0.0,0.9,50,0.00,,,0.00,WUHU216HW,2013-03-18 06:10:00,
2013-03-18 02:15:00,31.5,15.0,30.28,ENE,68,0.4,1.3,50,0.00,,,0.00,WUHU216HW,2013-03-18 06:15:00,
2013-03-18 02:20:00,31.3,14.9,30.29,North,0,0.4,1.6,50,0.00,,,0.00,WUHU216HW,2013-03-18 06:20:00,
2013-03-18 02:25:00,31.3,14.9,30.29,East,90,0.4,1.6,50,0.00,,,0.00,WUHU216HW,2013-03-18 06:25:00,
2013-03-18 02:30:00,31.3,14.3,30.29,NNW,338,0.4,1.8,49,0.00,,,0.00,WUHU216HW,2013-03-18 06:30:00,
2013-03-18 02:35:00,31.3,14.3,30.29,NNE,23,0.4,1.8,49,0.00,,,0.00,WUHU216HW,2013-03-18 06:35:00,
2013-03-18 02:40:00,31.3,14.3,30.29,NNE,23,3.1,3.6,49,0.00,,,0.00,WUHU216HW,2013-03-18 06:40:00,
2013-03-18 02:45:00,31.1,14.1,30.29,North,0,0.4,3.6,49,0.00,,,0.00,WUHU216HW,2013-03-18 06:45:00,
2013-03-18 02:50:00,31.0,14.1,30.30,ENE,68,0.2,2.9,49,0.00,,,0.00,WUHU216HW,2013-03-18 06:50:00,
2013-03-18 02:55:00,31.0,14.1,30.29,North,0,1.8,1.8,49,0.00,,,0.00,WUHU216HW,2013-03-18 06:55:00,
2013-03-18 03:00:00,30.8,14.3,30.30,NE,45,0.4,1.8,50,0.00,,,0.00,WUHU216HW,2013-03-18 07:00:00,
2013-03-18 03:05:00,30.8,14.3,30.30,North,0,0.4,1.8,50,0.00,,,0.00,WUHU216HW,2013-03-18 07:05:00,
2013-03-18 03:10:00,30.6,14.2,30.30,ENE,68,0.0,1.1,50,0.00,,,0.00,WUHU216HW,2013-03-18 07:10:00,
2013-03-18 03:15:00,30.6,14.2,30.31,ENE,68,0.0,1.3,50,0.00,,,0.00,WUHU216HW,2013-03-18 07:15:00,
2013-03-18 03:20:00,30.6,14.2,30.31,NW,315,0.9,1.8,50,0.00,,,0.00,WUHU216HW,2013-03-18 07:20:00,
2013-03-18 03:25:00,30.4,14.1,30.31,ENE,68,0.4,3.1,50,0.00,,,0.00,WUHU216HW,2013-03-18 07:25:00,
2013-03-18 03:30:00,30.4,14.1,30.31,NW,315,0.4,3.1,50,0.00,,,0.00,WUHU216HW,2013-03-18 07:30:00,
2013-03-18 03:35:00,30.2,13.3,30.31,NW,315,0.4,1.8,49,0.00,,,0.00,WUHU216HW,2013-03-18 07:35:00,
2013-03-18 03:40:00,30.2,13.3,30.32,ENE,68,0.0,1.8,49,0.00,,,0.00,WUHU216HW,2013-03-18 07:40:00,
2013-03-18 03:45:00,30.2,13.3,30.32,NNW,338,1.6,1.6,49,0.00,,,0.00,WUHU216HW,2013-03-18 07:45:00,
2013-03-18 03:50:00,30.2,13.3,30.32,North,0,0.4,2.0,49,0.00,,,0.00,WUHU216HW,2013-03-18 07:50:00,
2013-03-18 03:55:00,30.1,13.7,30.32,NE,45,0.0,2.0,50,0.00,,,0.00,WUHU216HW,2013-03-18 07:55:00,
2013-03-18 04:00:00,30.1,13.7,30.32,North,0,0.4,1.3,50,0.00,,,0.00,WUHU216HW,2013-03-18 08:00:00,
2013-03-18 04:05:00,30.1,13.7,30.32,NE,45,0.2,1.3,50,0.00,,,0.00,WUHU216HW,2013-03-18 08:05:00,
2013-03-18 04:10:00,29.9,13.5,30.32,NE,45,1.1,2.0,50,0.00,,,0.00,WUHU216HW,2013-03-18 08:10:00,
2013-03-18 04:15:00,29.9,13.5,30.32,NE,45,0.4,2.0,50,0.00,,,0.00,WUHU216HW,2013-03-18 08:15:00,
2013-03-18 04:20:00,29.9,13.5,30.32,North,0,0.4,2.0,50,0.00,,,0.00,WUHU216HW,2013-03-18 08:20:00,
2013-03-18 04:25:00,29.9,13.5,30.32,NNE,23,0.4,1.1,50,0.00,,,0.00,WUHU216HW,2013-03-18 08:25:00,
2013-03-18 04:30:00,29.7,13.4,30.32,East,90,0.2,0.9,50,0.00,,,0.00,WUHU216HW,2013-03-18 08:30:00,
2013-03-18 04:35:00,29.7,13.4,30.33,North,0,2.0,2.0,50,0.00,,,0.00,WUHU216HW,2013-03-18 08:35:00,
2013-03-18 04:40:00,29.5,13.2,30.33,NNE,23,0.4,2.0,50,0.00,,,0.00,WUHU216HW,2013-03-18 08:40:00,
2013-03-18 04:45:00,29.5,13.2,30.33,NE,45,0.0,1.1,50,0.00,,,0.00,WUHU216HW,2013-03-18 08:45:00,
2013-03-18 04:50:00,29.5,13.2,30.33,NE,45,0.2,0.7,50,0.00,,,0.00,WUHU216HW,2013-03-18 08:50:00,
2013-03-18 04:55:00,29.5,13.6,30.33,NE,45,0.0,0.4,51,0.00,,,0.00,WUHU216HW,2013-03-18 08:55:00,
2013-03-18 05:00:00,29.3,13.5,30.33,NE,45,0.4,1.6,51,0.00,,,0.00,WUHU216HW,2013-03-18 09:00:00,
2013-03-18 05:05:00,29.3,13.5,30.34,NE,45,0.0,1.6,51,0.00,,,0.00,WUHU216HW,2013-03-18 09:05:00,
2013-03-18 05:10:00,29.2,13.3,30.33,North,0,0.9,0.9,51,0.00,,,0.00,WUHU216HW,2013-03-18 09:10:00,
2013-03-18 05:15:00,29.2,13.3,30.34,ENE,68,0.0,1.8,51,0.00,,,0.00,WUHU216HW,2013-03-18 09:15:00,
2013-03-18 05:20:00,29.2,13.3,30.34,North,0,0.0,1.8,51,0.00,,,0.00,WUHU216HW,2013-03-18 09:20:00,
2013-03-18 05:25:00,29.2,13.7,30.34,East,90,0.0,0.7,52,0.00,,,0.00,WUHU216HW,2013-03-18 09:25:00,
2013-03-18 05:30:00,29.2,13.7,30.35,ENE,68,0.2,0.7,52,0.00,,,0.00,WUHU216HW,2013-03-18 09:30:00,
2013-03-18 05:35:00,29.0,13.6,30.34,North,0,0.0,1.1,52,0.00,,,0.00,WUHU216HW,2013-03-18 09:35:00,
2013-03-18 05:40:00,29.0,13.6,30.34,ENE,68,0.7,1.1,52,0.00,,,0.00,WUHU216HW,2013-03-18 09:40:00,
2013-03-18 05:45:00,28.8,13.4,30.34,NNE,23,0.0,1.1,52,0.00,,,0.00,WUHU216HW,2013-03-18 09:45:00,
2013-03-18 05:50:00,28.8,13.4,30.34,NE,45,0.2,1.1,52,0.00,,,0.00,WUHU216HW,2013-03-18 09:50:00,
2013-03-18 05:55:00,28.8,13.4,30.35,NNE,23,0.0,1.1,52,0.00,,,0.00,WUHU216HW,2013-03-18 09:55:00,
2013-03-18 06:00:00,28.8,13.4,30.34,NNE,23,1.1,1.1,52,0.00,,,0.00,WUHU216HW,2013-03-18 10:00:00,
2013-03-18 06:05:00,28.6,13.2,30.34,North,0,1.1,1.8,52,0.00,,,0.00,WUHU216HW,2013-03-18 10:05:00,
2013-03-18 06:10:00,28.6,13.2,30.34,East,90,0.4,2.9,52,0.00,,,0.00,WUHU216HW,2013-03-18 10:10:00,
2013-03-18 06:15:00,28.6,13.2,30.34,NE,45,0.9,3.6,52,0.00,,,0.00,WUHU216HW,2013-03-18 10:15:00,
2013-03-18 06:20:00,28.6,13.2,30.34,NNE,23,1.8,3.6,52,0.00,,,0.00,WUHU216HW,2013-03-18 10:20:00,
2013-03-18 06:25:00,28.8,13.4,30.35,ENE,68,0.4,3.4,52,0.00,,,0.00,WUHU216HW,2013-03-18 10:25:00,
2013-03-18 06:30:00,28.8,13.4,30.35,North,0,0.4,4.5,52,0.00,,,0.00,WUHU216HW,2013-03-18 10:30:00,
2013-03-18 06:35:00,28.8,13.4,30.36,NE,45,0.7,4.5,52,0.00,,,0.00,WUHU216HW,2013-03-18 10:35:00,
2013-03-18 06:40:00,28.8,13.8,30.36,East,90,1.1,2.9,53,0.00,,,0.00,WUHU216HW,2013-03-18 10:40:00,
2013-03-18 06:45:00,28.8,13.8,30.37,ENE,68,0.7,2.2,53,0.00,,,0.00,WUHU216HW,2013-03-18 10:45:00,
2013-03-18 06:50:00,28.8,13.8,30.36,East,90,0.9,2.0,53,0.00,,,0.00,WUHU216HW,2013-03-18 10:50:00,
2013-03-18 06:55:00,28.8,13.8,30.36,East,90,0.4,4.7,53,0.00,,,0.00,WUHU216HW,2013-03-18 10:55:00,
2013-03-18 07:00:00,28.8,13.8,30.36,NE,45,1.1,4.7,53,0.00,,,0.00,WUHU216HW,2013-03-18 11:00:00,
2013-03-18 07:05:00,29.0,14.0,30.36,East,90,1.8,3.8,53,0.00,,,0.00,WUHU216HW,2013-03-18 11:05:00,
2013-03-18 07:10:00,29.2,14.6,30.36,East,90,2.2,4.3,54,0.00,,,0.00,WUHU216HW,2013-03-18 11:10:00,
2013-03-18 07:15:00,29.2,14.6,30.36,ENE,68,1.1,5.1,54,0.00,,,0.00,WUHU216HW,2013-03-18 11:15:00,
2013-03-18 07:20:00,29.2,14.6,30.36,NE,45,0.4,5.1,54,0.00,,,0.00,WUHU216HW,2013-03-18 11:20:00,
2013-03-18 07:25:00,29.3,14.7,30.37,ENE,68,1.1,3.4,54,0.00,,,0.00,WUHU216HW,2013-03-18 11:25:00,
2013-03-18 07:30:00,29.3,14.7,30.37,ENE,68,1.8,2.9,54,0.00,,,0.00,WUHU216HW,2013-03-18 11:30:00,
2013-03-18 07:35:00,29.3,14.7,30.37,ENE,68,2.5,4.7,54,0.00,,,0.00,WUHU216HW,2013-03-18 11:35:00,
2013-03-18 07:40:00,29.5,14.9,30.37,ESE,113,3.1,4.9,54,0.00,,,0.00,WUHU216HW,2013-03-18 11:40:00,
2013-03-18 07:45:00,29.7,15.0,30.37,ENE,68,3.6,4.9,54,0.00,,,0.00,WUHU216HW,2013-03-18 11:45:00,
2013-03-18 07:50:00,29.9,15.2,30.37,ENE,68,3.1,5.4,54,0.00,,,0.00,WUHU216HW,2013-03-18 11:50:00,
2013-03-18 07:55:00,30.2,15.1,30.37,ENE,68,1.1,5.4,53,0.00,,,0.00,WUHU216HW,2013-03-18 11:55:00,
2013-03-18 08:00:00,30.2,14.7,30.37,ESE,113,3.1,5.8,52,0.00,,,0.00,WUHU216HW,2013-03-18 12:00:00,
2013-03-18 08:05:00,30.2,14.7,30.37,ENE,68,1.6,5.8,52,0.00,,,0.00,WUHU216HW,2013-03-18 12:05:00,
2013-03-18 08:10:00,30.2,14.7,30.37,ENE,68,1.3,4.0,52,0.00,,,0.00,WUHU216HW,2013-03-18 12:10:00,
2013-03-18 08:15:00,30.4,14.9,30.37,East,90,2.7,3.6,52,0.00,,,0.00,WUHU216HW,2013-03-18 12:15:00,
2013-03-18 08:20:00,30.4,14.9,30.36,ENE,68,2.5,3.8,52,0.00,,,0.00,WUHU216HW,2013-03-18 12:20:00,
2013-03-18 08:25:00,30.6,15.0,30.37,ESE,113,1.8,6.0,52,0.00,,,0.00,WUHU216HW,2013-03-18 12:25:00,
2013-03-18 08:30:00,30.6,15.0,30.36,ESE,113,3.4,6.0,52,0.00,,,0.00,WUHU216HW,2013-03-18 12:30:00,
2013-03-18 08:35:00,31.0,15.4,30.36,East,90,0.9,3.8,52,0.00,,,0.00,WUHU216HW,2013-03-18 12:35:00,
2013-03-18 08:40:00,31.3,15.7,30.36,NE,45,2.9,4.7,52,0.00,,,0.00,WUHU216HW,2013-03-18 12:40:00,
2013-03-18 08:45:00,31.9,15.8,30.37,ENE,68,2.7,5.4,51,0.00,,,0.00,WUHU216HW,2013-03-18 12:45:00,
2013-03-18 08:50:00,31.9,15.3,30.36,East,90,2.9,6.3,50,0.00,,,0.00,WUHU216HW,2013-03-18 12:50:00,
2013-03-18 08:55:00,32.0,15.5,30.37,ENE,68,4.3,6.3,50,0.00,,,0.00,WUHU216HW,2013-03-18 12:55:00,
2013-03-18 09:00:00,32.0,14.9,30.36,East,90,4.7,7.2,49,0.00,,,0.00,WUHU216HW,2013-03-18 13:00:00,
2013-03-18 09:05:00,32.4,15.3,30.36,ENE,68,4.3,7.2,49,0.00,,,0.00,WUHU216HW,2013-03-18 13:05:00,
2013-03-18 09:10:00,32.8,15.7,30.37,ESE,113,2.9,5.1,49,0.00,,,0.00,WUHU216HW,2013-03-18 13:10:00,
2013-03-18 09:15:00,32.9,15.8,30.36,East,90,4.3,4.3,49,0.00,,,0.00,WUHU216HW,2013-03-18 13:15:00,
2013-03-18 09:20:00,32.8,15.1,30.36,ENE,68,4.9,5.1,48,0.00,,,0.00,WUHU216HW,2013-03-18 13:20:00,
2013-03-18 09:25:00,33.1,15.9,30.36,ENE,68,3.8,6.3,49,0.00,,,0.00,WUHU216HW,2013-03-18 13:25:00,
2013-03-18 09:30:00,33.1,15.9,30.36,SSE,158,2.2,6.3,49,0.00,,,0.00,WUHU216HW,2013-03-18 13:30:00,
2013-03-18 09:35:00,33.5,16.3,30.36,ESE,113,0.9,5.8,49,0.00,,,0.00,WUHU216HW,2013-03-18 13:35:00,
2013-03-18 09:40:00,33.8,16.6,30.36,ENE,68,3.1,5.8,49,0.00,,,0.00,WUHU216HW,2013-03-18 13:40:00,
2013-03-18 09:45:00,33.8,16.6,30.36,SE,135,3.1,6.0,49,0.00,,,0.00,WUHU216HW,2013-03-18 13:45:00,
2013-03-18 09:50:00,33.7,16.5,30.36,East,90,1.3,6.0,49,0.01,,,0.01,WUHU216HW,2013-03-18 13:50:00,
2013-03-18 09:55:00,33.8,16.6,30.36,SSW,203,3.6,5.8,49,0.01,,,0.01,WUHU216HW,2013-03-18 13:55:00,
2013-03-18 10:00:00,33.8,16.6,30.37,NNE,23,2.2,6.9,49,0.01,,,0.01,WUHU216HW,2013-03-18 14:00:00,
2013-03-18 10:05:00,33.8,16.6,30.37,ENE,68,5.4,6.9,49,0.01,,,0.01,WUHU216HW,2013-03-18 14:05:00,
2013-03-18 10:10:00,33.8,16.6,30.37,East,90,1.1,5.6,49,0.01,,,0.01,WUHU216HW,2013-03-18 14:10:00,
2013-03-18 10:15:00,34.2,17.5,30.36,ENE,68,3.4,5.6,50,0.01,,,0.01,WUHU216HW,2013-03-18 14:15:00,
2013-03-18 10:20:00,34.6,17.3,30.36,NNE,23,3.1,4.7,49,0.01,,,0.01,WUHU216HW,2013-03-18 14:20:00,
2013-03-18 10:25:00,34.4,17.1,30.36,East,90,4.0,5.4,49,0.01,,,0.01,WUHU216HW,2013-03-18 14:25:00,
2013-03-18 10:30:00,34.6,17.3,30.36,ESE,113,2.2,6.5,49,0.01,,,0.01,WUHU216HW,2013-03-18 14:30:00,
2013-03-18 10:35:00,34.6,17.8,30.35,SSE,158,1.6,6.5,50,0.01,,,0.01,WUHU216HW,2013-03-18 14:35:00,
2013-03-18 10:40:00,34.9,18.2,30.36,ESE,113,1.3,5.6,50,0.00,,,0.01,WUHU216HW,2013-03-18 14:40:00,
2013-03-18 10:45:00,35.3,18.5,30.36,East,90,4.0,6.3,50,0.00,,,0.01,WUHU216HW,2013-03-18 14:45:00,
2013-03-18 10:50:00,35.6,18.9,30.35,ENE,68,2.5,6.3,50,0.00,,,0.01,WUHU216HW,2013-03-18 14:50:00,
2013-03-18 10:55:00,35.8,19.1,30.35,SSW,203,2.0,6.0,50,0.00,,,0.01,WUHU216HW,2013-03-18 14:55:00,
2013-03-18 11:00:00,36.0,19.3,30.35,ENE,68,3.4,6.0,50,0.00,,,0.01,WUHU216HW,2013-03-18 15:00:00,
2013-03-18 11:05:00,36.2,19.4,30.34,ENE,68,3.1,5.8,50,0.00,,,0.01,WUHU216HW,2013-03-18 15:05:00,
2013-03-18 11:10:00,36.4,20.0,30.34,NNE,23,2.2,4.7,51,0.00,,,0.01,WUHU216HW,2013-03-18 15:10:00,
2013-03-18 11:15:00,36.7,20.4,30.35,ESE,113,1.6,4.9,51,0.00,,,0.01,WUHU216HW,2013-03-18 15:15:00,
2013-03-18 11:20:00,36.7,19.9,30.34,ENE,68,1.6,5.1,50,0.00,,,0.01,WUHU216HW,2013-03-18 15:20:00,
2013-03-18 11:25:00,36.9,20.4,30.34,SSW,203,2.0,7.2,51,0.00,,,0.01,WUHU216HW,2013-03-18 15:25:00,
2013-03-18 11:30:00,37.1,20.6,30.34,ESE,113,1.6,7.2,51,0.00,,,0.01,WUHU216HW,2013-03-18 15:30:00,
2013-03-18 11:35:00,37.3,20.3,30.34,ENE,68,2.5,6.0,50,0.00,,,0.01,WUHU216HW,2013-03-18 15:35:00,
2013-03-18 11:40:00,37.3,20.8,30.34,ENE,68,2.7,5.4,51,0.00,,,0.01,WUHU216HW,2013-03-18 15:40:00,
2013-03-18 11:45:00,37.1,20.6,30.34,ESE,113,3.8,4.7,51,0.00,,,0.01,WUHU216HW,2013-03-18 15:45:00,
2013-03-18 11:50:00,36.7,20.4,30.34,ENE,68,2.9,5.1,51,0.00,,,0.01,WUHU216HW,2013-03-18 15:50:00,
2013-03-18 11:55:00,36.5,20.2,30.34,SE,135,1.8,5.8,51,0.00,,,0.01,WUHU216HW,2013-03-18 15:55:00,
2013-03-18 12:00:00,36.4,20.0,30.33,ENE,68,2.0,5.8,51,0.00,,,0.01,WUHU216HW,2013-03-18 16:00:00,
2013-03-18 12:05:00,36.4,20.4,30.33,East,90,4.3,6.0,52,0.00,,,0.01,WUHU216HW,2013-03-18 16:05:00,
2013-03-18 12:10:00,36.2,20.3,30.33,ENE,68,3.4,6.0,52,0.00,,,0.01,WUHU216HW,2013-03-18 16:10:00,
2013-03-18 12:15:00,36.2,20.3,30.33,ENE,68,3.8,6.0,52,0.00,,,0.01,WUHU216HW,2013-03-18 16:15:00,
2013-03-18 12:20:00,36.2,20.7,30.33,NE,45,4.3,5.4,53,0.00,,,0.01,WUHU216HW,2013-03-18 16:20:00,
2013-03-18 12:25:00,36.0,20.5,30.32,NNW,338,3.8,8.5,53,0.00,,,0.01,WUHU216HW,2013-03-18 16:25:00,
2013-03-18 12:30:00,36.2,20.7,30.32,East,90,1.3,8.5,53,0.00,,,0.01,WUHU216HW,2013-03-18 16:30:00,
2013-03-18 12:35:00,36.4,21.2,30.33,NNE,23,3.1,7.2,54,0.00,,,0.01,WUHU216HW,2013-03-18 16:35:00,
2013-03-18 12:40:00,36.4,21.2,30.32,East,90,1.3,7.2,54,0.00,,,0.01,WUHU216HW,2013-03-18 16:40:00,
2013-03-18 12:45:00,36.5,21.4,30.32,ESE,113,5.8,6.3,54,0.00,,,0.01,WUHU216HW,2013-03-18 16:45:00,
2013-03-18 12:50:00,36.9,21.8,30.32,SE,135,3.4,6.0,54,0.00,,,0.01,WUHU216HW,2013-03-18 16:50:00,
2013-03-18 12:55:00,37.1,22.0,30.32,ENE,68,2.9,5.8,54,0.00,,,0.01,WUHU216HW,2013-03-18 16:55:00,
2013-03-18 13:00:00,37.1,21.5,30.32,ENE,68,8.1,8.1,53,0.00,,,0.01,WUHU216HW,2013-03-18 17:00:00,
2013-03-18 13:05:00,36.4,21.2,30.31,East,90,4.0,8.5,54,0.00,,,0.01,WUHU216HW,2013-03-18 17:05:00,
2013-03-18 13:10:00,36.7,21.6,30.31,ENE,68,2.5,8.5,54,0.00,,,0.01,WUHU216HW,2013-03-18 17:10:00,
2013-03-18 13:15:00,37.1,22.3,30.31,ESE,113,4.5,6.0,55,0.00,,,0.01,WUHU216HW,2013-03-18 17:15:00,
2013-03-18 13:20:00,37.3,22.1,30.30,East,90,5.4,6.9,54,0.00,,,0.01,WUHU216HW,2013-03-18 17:20:00,
2013-03-18 13:25:00,36.9,21.8,30.30,ENE,68,4.0,6.9,54,0.00,,,0.01,WUHU216HW,2013-03-18 17:25:00,
2013-03-18 13:30:00,36.5,21.9,30.29,NE,45,3.4,8.7,55,0.00,,,0.01,WUHU216HW,2013-03-18 17:30:00,
2013-03-18 13:35:00,36.4,22.1,30.29,East,90,4.7,8.7,56,0.00,,,0.01,WUHU216HW,2013-03-18 17:35:00,
2013-03-18 13:40:00,36.4,22.1,30.29,ESE,113,4.3,6.9,56,0.00,,,0.01,WUHU216HW,2013-03-18 17:40:00,
2013-03-18 13:45:00,36.4,22.1,30.28,ENE,68,4.3,8.3,56,0.00,,,0.01,WUHU216HW,2013-03-18 17:45:00,
2013-03-18 13:50:00,36.4,22.1,30.28,East,90,2.5,8.3,56,0.00,,,0.01,WUHU216HW,2013-03-18 17:50:00,
2013-03-18 13:55:00,36.5,22.3,30.28,ESE,113,3.8,7.4,56,0.00,,,0.01,WUHU216HW,2013-03-18 17:55:00,
2013-03-18 14:00:00,36.4,22.1,30.27,East,90,2.5,7.4,56,0.00,,,0.01,WUHU216HW,2013-03-18 18:00:00,
2013-03-18 14:05:00,36.5,22.3,30.27,East,90,2.7,7.2,56,0.00,,,0.01,WUHU216HW,2013-03-18 18:05:00,
2013-03-18 14:10:00,36.7,22.5,30.27,East,90,2.5,5.4,56,0.00,,,0.01,WUHU216HW,2013-03-18 18:10:00,
2013-03-18 14:15:00,36.9,22.6,30.26,East,90,3.6,4.9,56,0.00,,,0.01,WUHU216HW,2013-03-18 18:15:00,
2013-03-18 14:20:00,36.7,22.5,30.26,ENE,68,3.8,7.6,56,0.00,,,0.01,WUHU216HW,2013-03-18 18:20:00,
2013-03-18 14:25:00,36.5,22.3,30.26,ENE,68,2.0,7.6,56,0.00,,,0.01,WUHU216HW,2013-03-18 18:25:00,
2013-03-18 14:30:00,36.5,22.8,30.26,ESE,113,3.1,6.7,57,0.00,,,0.01,WUHU216HW,2013-03-18 18:30:00,
2013-03-18 14:35:00,36.5,22.8,30.26,East,90,1.8,5.1,57,0.00,,,0.01,WUHU216HW,2013-03-18 18:35:00,
2013-03-18 14:40:00,36.7,22.9,30.26,ENE,68,3.6,5.6,57,0.00,,,0.01,WUHU216HW,2013-03-18 18:40:00,
2013-03-18 14:45:00,36.4,22.6,30.25,ENE,68,4.5,6.9,57,0.00,,,0.01,WUHU216HW,2013-03-18 18:45:00,
2013-03-18 14:50:00,36.4,23.1,30.25,East,90,6.5,6.9,58,0.00,,,0.01,WUHU216HW,2013-03-18 18:50:00,
2013-03-18 14:55:00,36.2,22.9,30.24,East,90,4.3,7.2,58,0.00,,,0.01,WUHU216HW,2013-03-18 18:55:00,
2013-03-18 15:00:00,36.0,23.1,30.24,NE,45,6.3,7.4,59,0.00,,,0.01,WUHU216HW,2013-03-18 19:00:00,
2013-03-18 15:05:00,35.8,23.0,30.24,ESE,113,4.0,9.2,59,0.00,,,0.01,WUHU216HW,2013-03-18 19:05:00,
2013-03-18 15:10:00,36.0,23.6,30.23,East,90,3.4,9.2,60,0.00,,,0.01,WUHU216HW,2013-03-18 19:10:00,
2013-03-18 15:15:00,36.0,23.6,30.23,East,90,4.7,8.5,60,0.00,,,0.01,WUHU216HW,2013-03-18 19:15:00,
2013-03-18 15:20:00,36.0,23.6,30.22,ENE,68,1.1,8.5,60,0.00,,,0.01,WUHU216HW,2013-03-18 19:20:00,
2013-03-18 15:25:00,36.0,23.6,30.23,SSE,158,2.7,7.2,60,0.00,,,0.01,WUHU216HW,2013-03-18 19:25:00,
2013-03-18 15:30:00,36.2,23.7,30.22,NE,45,2.5,7.2,60,0.00,,,0.01,WUHU216HW,2013-03-18 19:30:00,
2013-03-18 15:35:00,36.0,23.6,30.22,SE,135,2.7,8.3,60,0.00,,,0.01,WUHU216HW,2013-03-18 19:35:00,
2013-03-18 15:40:00,35.6,23.2,30.22,ENE,68,2.5,8.3,60,0.00,,,0.01,WUHU216HW,2013-03-18 19:40:00,
2013-03-18 15:45:00,35.6,23.2,30.22,East,90,4.7,7.6,60,0.00,,,0.01,WUHU216HW,2013-03-18 19:45:00,
2013-03-18 15:50:00,35.6,23.2,30.22,ESE,113,7.4,9.2,60,0.00,,,0.01,WUHU216HW,2013-03-18 19:50:00,
2013-03-18 15:55:00,35.5,23.4,30.22,NNE,23,2.7,9.2,61,0.00,,,0.01,WUHU216HW,2013-03-18 19:55:00,
2013-03-18 16:00:00,35.6,23.6,30.22,ENE,68,4.5,8.1,61,0.00,,,0.01,WUHU216HW,2013-03-18 20:00:00,
2013-03-18 16:05:00,35.6,23.9,30.23,East,90,2.2,8.1,62,0.00,,,0.01,WUHU216HW,2013-03-18 20:05:00,
2013-03-18 16:10:00,35.5,23.8,30.22,ESE,113,5.4,7.4,62,0.00,,,0.01,WUHU216HW,2013-03-18 20:10:00,
2013-03-18 16:15:00,35.6,23.9,30.21,ENE,68,2.9,7.8,62,0.00,,,0.01,WUHU216HW,2013-03-18 20:15:00,
2013-03-18 16:20:00,35.6,24.3,30.21,East,90,3.4,8.5,63,0.00,,,0.01,WUHU216HW,2013-03-18 20:20:00,
2013-03-18 16:25:00,35.5,23.8,30.21,ENE,68,2.2,8.5,62,0.00,,,0.01,WUHU216HW,2013-03-18 20:25:00,
2013-03-18 16:30:00,35.6,24.3,30.19,NE,45,7.6,9.8,63,0.00,,,0.01,WUHU216HW,2013-03-18 20:30:00,
2013-03-18 16:35:00,35.5,24.5,30.19,NE,45,5.4,9.8,64,0.00,,,0.01,WUHU216HW,2013-03-18 20:35:00,
2013-03-18 16:40:00,35.3,24.7,30.19,ENE,68,5.1,8.5,65,0.00,,,0.01,WUHU216HW,2013-03-18 20:40:00,
2013-03-18 16:45:00,35.3,24.7,30.19,East,90,3.8,8.5,65,0.00,,,0.01,WUHU216HW,2013-03-18 20:45:00,
2013-03-18 16:50:00,35.3,25.0,30.19,ESE,113,3.6,7.2,66,0.00,,,0.01,WUHU216HW,2013-03-18 20:50:00,
2013-03-18 16:55:00,35.3,25.4,30.19,East,90,4.7,7.4,67,0.00,,,0.01,WUHU216HW,2013-03-18 20:55:00,
2013-03-18 17:00:00,35.1,25.6,30.19,ESE,113,2.7,7.4,68,0.00,,,0.01,WUHU216HW,2013-03-18 21:00:00,
2013-03-18 17:05:00,34.9,25.7,30.18,ENE,68,3.8,7.2,69,0.00,,,0.01,WUHU216HW,2013-03-18 21:05:00,
2013-03-18 17:10:00,34.9,25.7,30.18,NNE,23,4.0,7.2,69,0.00,,,0.01,WUHU216HW,2013-03-18 21:10:00,
2013-03-18 17:15:00,34.9,26.5,30.18,East,90,5.8,8.1,71,0.00,,,0.01,WUHU216HW,2013-03-18 21:15:00,
2013-03-18 17:20:00,34.7,26.3,30.18,SE,135,1.1,8.1,71,0.00,,,0.01,WUHU216HW,2013-03-18 21:20:00,
2013-03-18 17:25:00,34.6,26.4,30.18,East,90,5.4,5.8,72,0.00,,,0.01,WUHU216HW,2013-03-18 21:25:00,
2013-03-18 17:30:00,34.4,26.6,30.18,ENE,68,4.9,6.9,73,0.00,,,0.01,WUHU216HW,2013-03-18 21:30:00,
2013-03-18 17:35:00,34.2,27.0,30.17,NE,45,5.1,8.1,75,0.00,,,0.01,WUHU216HW,2013-03-18 21:35:00,
2013-03-18 17:40:00,34.2,26.6,30.17,ENE,68,4.3,8.1,74,0.00,,,0.01,WUHU216HW,2013-03-18 21:40:00,
2013-03-18 17:45:00,34.2,27.4,30.18,ENE,68,4.0,7.8,76,0.00,,,0.01,WUHU216HW,2013-03-18 21:45:00,
2013-03-18 17:50:00,34.2,27.0,30.18,ENE,68,5.6,6.9,75,0.00,,,0.01,WUHU216HW,2013-03-18 21:50:00,
2013-03-18 17:55:00,34.0,27.2,30.18,ENE,68,4.7,6.3,76,0.00,,,0.01,WUHU216HW,2013-03-18 21:55:00,
2013-03-18 18:00:00,34.0,27.2,30.18,ENE,68,5.4,6.5,76,0.00,,,0.01,WUHU216HW,2013-03-18 22:00:00,
2013-03-18 18:05:00,34.0,27.5,30.18,ENE,68,6.9,6.9,77,0.00,,,0.01,WUHU216HW,2013-03-18 22:05:00,
2013-03-18 18:10:00,34.0,27.2,30.18,East,90,2.5,6.9,76,0.00,,,0.01,WUHU216HW,2013-03-18 22:10:00,
2013-03-18 18:15:00,33.8,27.3,30.18,NE,45,3.1,6.9,77,0.00,,,0.01,WUHU216HW,2013-03-18 22:15:00,
2013-03-18 18:20:00,33.7,27.5,30.18,East,90,2.0,5.1,78,0.00,,,0.01,WUHU216HW,2013-03-18 22:20:00,
2013-03-18 18:25:00,33.7,27.5,30.18,ESE,113,4.9,4.9,78,0.00,,,0.01,WUHU216HW,2013-03-18 22:25:00,
2013-03-18 18:30:00,33.5,27.6,30.17,East,90,4.7,6.0,79,0.00,,,0.01,WUHU216HW,2013-03-18 22:30:00,
2013-03-18 18:35:00,33.5,27.9,30.17,ENE,68,6.5,7.2,80,0.00,,,0.01,WUHU216HW,2013-03-18 22:35:00,
2013-03-18 18:40:00,33.5,27.9,30.17,ENE,68,1.8,7.2,80,0.00,,,0.01,WUHU216HW,2013-03-18 22:40:00,
2013-03-18 18:45:00,33.5,27.9,30.17,East,90,3.6,5.4,80,0.00,,,0.01,WUHU216HW,2013-03-18 22:45:00,
2013-03-18 18:50:00,33.3,28.1,30.15,ENE,68,4.0,9.2,81,0.00,,,0.01,WUHU216HW,2013-03-18 22:50:00,
2013-03-18 18:55:00,33.1,27.9,30.13,East,90,4.5,9.2,81,0.00,,,0.01,WUHU216HW,2013-03-18 22:55:00,
2013-03-18 19:00:00,33.1,27.9,30.13,East,90,4.0,7.4,81,0.00,,,0.01,WUHU216HW,2013-03-18 23:00:00,
2013-03-18 19:05:00,33.1,28.4,30.12,ENE,68,3.4,8.5,83,0.00,,,0.01,WUHU216HW,2013-03-18 23:05:00,
2013-03-18 19:10:00,32.9,28.4,30.11,East,90,6.3,8.5,83,0.00,,,0.01,WUHU216HW,2013-03-18 23:10:00,
2013-03-18 19:15:00,32.9,28.9,30.11,ENE,68,7.4,11.6,85,0.00,,,0.01,WUHU216HW,2013-03-18 23:15:00,
2013-03-18 19:20:00,32.8,28.7,30.12,East,90,8.5,11.6,85,0.00,,,0.01,WUHU216HW,2013-03-18 23:20:00,
2013-03-18 19:25:00,32.8,28.7,30.12,ENE,68,1.6,8.5,85,0.00,,,0.01,WUHU216HW,2013-03-18 23:25:00,
2013-03-18 19:30:00,32.8,28.7,30.12,East,90,2.9,6.9,85,0.00,,,0.01,WUHU216HW,2013-03-18 23:30:00,
2013-03-18 19:35:00,32.9,28.9,30.11,East,90,5.4,6.9,85,0.00,,,0.01,WUHU216HW,2013-03-18 23:35:00,
2013-03-18 19:40:00,32.9,29.2,30.11,SSE,158,2.0,8.3,86,0.00,,,0.01,WUHU216HW,2013-03-18 23:40:00,
2013-03-18 19:45:00,33.1,29.3,30.10,East,90,4.0,9.6,86,0.00,,,0.01,WUHU216HW,2013-03-18 23:45:00,
2013-03-18 19:50:00,33.1,29.3,30.11,South,180,4.9,9.6,86,0.00,,,0.01,WUHU216HW,2013-03-18 23:50:00,
2013-03-18 19:55:00,33.1,29.1,30.10,ESE,113,3.4,8.1,85,0.00,,,0.01,WUHU216HW,2013-03-18 23:55:00,
2013-03-18 20:00:00,33.1,29.3,30.10,East,90,5.4,8.3,86,0.00,,,0.01,WUHU216HW,2013-03-19 00:00:00,
2013-03-18 20:05:00,33.1,29.3,30.09,WSW,248,3.6,8.3,86,0.00,,,0.01,WUHU216HW,2013-03-19 00:05:00,
2013-03-18 20:10:00,32.9,29.2,30.10,ESE,113,2.5,7.2,86,0.00,,,0.01,WUHU216HW,2013-03-19 00:10:00,
2013-03-18 20:15:00,32.9,29.2,30.09,East,90,3.4,6.3,86,0.00,,,0.01,WUHU216HW,2013-03-19 00:15:00,
2013-03-18 20:20:00,32.9,29.4,30.09,ESE,113,5.4,5.6,87,0.00,,,0.01,WUHU216HW,2013-03-19 00:20:00,
2013-03-18 20:25:00,32.9,29.4,30.09,East,90,8.3,8.3,87,0.00,,,0.01,WUHU216HW,2013-03-19 00:25:00,
2013-03-18 20:30:00,33.1,29.6,30.09,East,90,1.8,8.3,87,0.00,,,0.01,WUHU216HW,2013-03-19 00:30:00,
2013-03-18 20:35:00,33.1,29.6,30.10,East,90,4.0,5.4,87,0.00,,,0.01,WUHU216HW,2013-03-19 00:35:00,
2013-03-18 20:40:00,33.3,30.1,30.09,ENE,68,6.0,6.0,88,0.00,,,0.01,WUHU216HW,2013-03-19 00:40:00,
2013-03-18 20:45:00,33.3,30.1,30.09,NE,45,3.8,6.0,88,0.00,,,0.01,WUHU216HW,2013-03-19 00:45:00,
2013-03-18 20:50:00,33.5,30.2,30.09,East,90,1.8,6.3,88,0.00,,,0.01,WUHU216HW,2013-03-19 00:50:00,
2013-03-18 20:55:00,33.5,30.2,30.08,East,90,1.1,6.3,88,0.00,,,0.01,WUHU216HW,2013-03-19 00:55:00,
2013-03-18 21:00:00,33.5,30.2,30.08,ENE,68,3.4,5.1,88,0.00,,,0.01,WUHU216HW,2013-03-19 01:00:00,
2013-03-18 21:05:00,33.5,30.2,30.08,ENE,68,2.0,5.4,88,0.00,,,0.01,WUHU216HW,2013-03-19 01:05:00,
2013-03-18 21:10:00,33.5,30.2,30.07,East,90,4.3,6.3,88,0.00,,,0.01,WUHU216HW,2013-03-19 01:10:00,
2013-03-18 21:15:00,33.5,30.5,30.07,East,90,4.9,6.3,89,0.00,,,0.01,WUHU216HW,2013-03-19 01:15:00,
2013-03-18 21:20:00,33.5,30.2,30.06,ENE,68,3.4,5.4,88,0.00,,,0.01,WUHU216HW,2013-03-19 01:20:00,
2013-03-18 21:25:00,33.7,30.7,30.06,ENE,68,3.4,6.5,89,0.00,,,0.01,WUHU216HW,2013-03-19 01:25:00,
2013-03-18 21:31:00,33.7,30.7,30.05,SE,135,6.0,6.5,89,0.00,,,0.01,WUHU216HW,2013-03-19 01:31:00,
2013-03-18 21:36:00,33.8,30.9,30.05,ENE,68,4.0,6.7,89,0.00,,,0.01,WUHU216HW,2013-03-19 01:36:00,
2013-03-18 21:41:00,33.8,30.9,30.05,East,90,4.0,6.7,89,0.00,,,0.01,WUHU216HW,2013-03-19 01:41:00,
2013-03-18 21:46:00,33.8,30.9,30.05,East,90,2.5,5.4,89,0.00,,,0.01,WUHU216HW,2013-03-19 01:46:00,
2013-03-18 21:51:00,33.8,30.9,30.05,ENE,68,1.6,6.7,89,0.00,,,0.01,WUHU216HW,2013-03-19 01:51:00,
2013-03-18 21:56:00,33.8,30.9,30.04,ESE,113,2.7,6.7,89,0.00,,,0.01,WUHU216HW,2013-03-19 01:56:00,
2013-03-18 22:01:00,33.8,30.9,30.04,South,180,2.7,6.7,89,0.00,,,0.01,WUHU216HW,2013-03-19 02:01:00,
2013-03-18 22:06:00,34.0,31.1,30.04,ENE,68,6.3,8.1,89,0.00,,,0.01,WUHU216HW,2013-03-19 02:06:00,
2013-03-18 22:11:00,34.0,31.1,30.04,East,90,2.2,8.1,89,0.00,,,0.01,WUHU216HW,2013-03-19 02:11:00,
2013-03-18 22:16:00,34.0,31.1,30.04,ENE,68,2.7,6.3,89,0.00,,,0.01,WUHU216HW,2013-03-19 02:16:00,
2013-03-18 22:21:00,34.2,31.2,30.04,East,90,8.5,9.2,89,0.00,,,0.01,WUHU216HW,2013-03-19 02:21:00,
2013-03-18 22:26:00,34.2,31.2,30.04,ENE,68,1.6,9.2,89,0.00,,,0.01,WUHU216HW,2013-03-19 02:26:00,
2013-03-18 22:31:00,34.2,31.2,30.04,ENE,68,3.6,8.5,89,0.00,,,0.01,WUHU216HW,2013-03-19 02:31:00,
2013-03-18 22:36:00,34.2,31.2,30.03,ENE,68,4.3,6.3,89,0.00,,,0.01,WUHU216HW,2013-03-19 02:36:00,
2013-03-18 22:41:00,34.2,31.2,30.03,ENE,68,3.6,6.3,89,0.00,,,0.01,WUHU216HW,2013-03-19 02:41:00,
2013-03-18 22:46:00,34.2,31.2,30.03,NE,45,6.3,6.3,89,0.00,,,0.01,WUHU216HW,2013-03-19 02:46:00,
2013-03-18 22:51:00,34.2,31.2,30.03,East,90,5.1,8.5,89,0.00,,,0.01,WUHU216HW,2013-03-19 02:51:00,
2013-03-18 22:56:00,34.2,31.2,30.03,East,90,2.7,8.5,89,0.00,,,0.01,WUHU216HW,2013-03-19 02:56:00,
2013-03-18 23:01:00,34.4,31.7,30.02,ENE,68,4.7,6.3,90,0.00,,,0.01,WUHU216HW,2013-03-19 03:01:00,
2013-03-18 23:06:00,34.4,31.7,30.02,NE,45,2.2,5.1,90,0.00,,,0.01,WUHU216HW,2013-03-19 03:06:00,
2013-03-18 23:11:00,34.4,31.4,30.02,East,90,2.0,4.7,89,0.01,,,0.02,WUHU216HW,2013-03-19 03:11:00,
2013-03-18 23:16:00,34.4,31.4,30.01,East,90,1.8,5.6,89,0.03,,,0.04,WUHU216HW,2013-03-19 03:16:00,
2013-03-18 23:21:00,34.4,31.7,30.01,East,90,2.5,5.6,90,0.04,,,0.05,WUHU216HW,2013-03-19 03:21:00,
2013-03-18 23:26:00,34.4,31.4,30.00,East,90,1.8,4.7,89,0.05,,,0.06,WUHU216HW,2013-03-19 03:26:00,
2013-03-18 23:31:00,34.6,31.6,30.00,East,90,4.0,5.6,89,0.06,,,0.07,WUHU216HW,2013-03-19 03:31:00,
2013-03-18 23:36:00,34.6,31.6,30.00,ESE,113,2.9,5.6,89,0.08,,,0.09,WUHU216HW,2013-03-19 03:36:00,
2013-03-18 23:41:00,34.6,31.9,30.00,ESE,113,1.8,6.0,90,0.08,,,0.09,WUHU216HW,2013-03-19 03:41:00,
2013-03-18 23:46:00,34.6,31.6,29.99,ENE,68,4.0,6.7,89,0.09,,,0.10,WUHU216HW,2013-03-19 03:46:00,
2013-03-18 23:51:00,34.6,31.6,29.98,East,90,2.5,6.7,89,0.10,,,0.11,WUHU216HW,2013-03-19 03:51:00,
2013-03-18 23:56:00,34.7,32.0,29.98,East,90,3.4,6.3,90,0.11,,,0.12,WUHU216HW,2013-03-19 03:56:00,